Погода в Никульевке

Россия / Пензенская область     53°03′41″N   42°50′28″E
темп.,
°C
ветер,
м/с
пор.,
м/с
влажн.,
%
обл.,
%
осадки,
мм/ч
давл.,
гПа
погр.,
м
19 января, ср
ср1900:00−4ю2699100 0.0 1009116
03:00−2ююв249787 0.2 1010144
06:00−4ссв2297100 0.6 101191
09:00−7с4696100 1.1 1013181
12:00−7с4694100 1.3 1015265
15:00−9с359693 1.4 1017132
18:00−14с229978 0.1 101810
21:00−13с229884 0.1 101833
20 января, чт
чт2000:00−17ююв1110091 0.0 10199
03:00−17ю1110099 0.1 10199
06:00−16ю35100100 0.1 101973
09:00−16ю3710099 0.1 1020105
12:00−13ююз499792 0.0 1019214
15:00−12ю4109661 0.0 1018222
18:00−15ю4119761 0.0 1018162
21:00−15ю5129779 0.0 1018214
21 января, пт
пт2100:00−15ю5149682 0.0 1018240
03:00−14ю5149791 0.0 1018260
06:00−14ююв51496100 0.0 1017254
09:00−13ююв61693100 0.0 1016321
12:00−10ююв81889100 0.0 1015496
15:00−8ююв91987100 0.0 1013604
18:00−7ююв91894100 0.5 1012615
21:00−7ююв81695100 1.7 1011620
22 января, сб
сб2200:00−6ююв61395100 2.1 1012527
03:00−5ююв4896100 2.5 1013265
06:00−8ююв3599100 0.0 101467
09:00−6ююв3698100 0.1 1016250
12:00−4ююв3595100 0.0 1017377
15:00−3ю1297100 0.6 1017167
18:00−5ссз1298100 0.8 101733
21:00−7зсз2297100 1.1 101930
23 января, вс
вс2300:00−8з229781 0.3 102120
03:00−12зюз119977 0.3 102310
06:00−16зюз22100100 0.0 102512
09:00−9ююз22100100 0.1 1027166
12:00−7ю1195100 0.1 1029200
15:00−8всв2297100 0.1 103027
18:00−8св2495100 0.0 103177
21:00−6св2497100 0.1 1031106